Location: Newark
(41.0833°N, 9.3833°E)
Time: 20:55:09
(UTC+00:00)

Envisat - Pass Details

Date: 05 April 2020
Orbit: 764 x 766 km, 98.1° (Epoch: 06 June)

Event Time Altitude Azimuth Distance (km) Brightness Sun altitude
Rises 18:30:49 0° 217° (SW) 3,219 6.5 -7.9°
Reaches altitude 10° 18:34:36 10° 246° (WSW) 2,300 6.3 -8.6°
Maximum altitude 18:36:42 12° 271° (W) 2,135 6.7 -9.0°
Drops below altitude 10° 18:38:48 10° 296° (WNW) 2,308 7.1 -9.4°
Sets 18:42:37 0° 325° (NW) 3,241 7.2 -10.1°
